Jackson, WY

3:22 AM MDT on June 27, 2017 (GMT -0600)
Jackson Hole

Weather History for KJAC - February, 2014

Change the Weather History Date:

Tuesday, February 11, 2014

  Actual Average Record
Temperature  
Mean Temperature 27 °F -  
Max Temperature 33 °F 29 °F 45 °F (1961)
Min Temperature 21 °F 0 °F -31 °F (1982)
Degree Days  
Heating Degree Days 38    
Moisture  
Dew Point 24 °F    
Average Humidity 83    
Maximum Humidity 93    
Minimum Humidity 70    
Precipitation  
Precipitation 0.00 in - - ()
Sea Level Pressure  
Sea Level Pressure 30.05 in    
Wind  
Wind Speed 9 mph (SSW)    
Max Wind Speed 22 mph    
Max Gust Speed 33 mph    
Visibility 8 miles    
Events Snow    
Averages and records for this station are not official NWS values.
T = Trace of Precipitation, MM = Missing Value Source: NWS Daily Summary

Daily Weather History Graph

Daily Weather History Graph

Search for Another Location

Airport or City:

Trip Planner

Search our weather history database for the weather conditions in past years. The results will help you decide how hot, cold, wet, or windy it might be!

Date:

Astronomy

Feb. 11, 2014 Rise Set
Actual Time 7:26 AM MST 5:48 PM MST
Civil Twilight 6:57 AM MST 6:17 PM MST
Nautical Twilight 6:23 AM MST 6:51 PM MST
Astronomical Twilight 5:50 AM MST 7:24 PM MST
Moon 3:09 PM MST (2/11) 5:08 AM MST (2/11)
Length of Visible Light 11h 20m
Length of Day
10h 21m
Waxing Gibbous, 91% of the Moon is Illuminated
Feb 11
Waxing Gibbous
Feb 14
Full
Feb 22
Last Quarter
Mar 1
New
Mar 8
First Quarter

Hourly Weather History & Observations

Time (MST) Temp. Windchill Dew Point Humidity Pressure Visibility Wind Dir Wind Speed Gust Speed Precip Events Conditions
12:15 AM 21.2 °F - 19.4 °F 93% 30.12 in 10.0 mi Calm Calm - N/A   Overcast
12:35 AM 21.2 °F 13.6 °F 19.4 °F 93% 30.11 in 10.0 mi WSW 5.8 mph - N/A   Overcast
12:55 AM 21.2 °F 12.6 °F 17.6 °F 86% 30.11 in 10.0 mi WSW 6.9 mph - N/A   Overcast
1:15 AM 23.0 °F 17.0 °F 19.4 °F 86% 30.10 in 10.0 mi SW 4.6 mph - N/A   Overcast
1:35 AM 21.2 °F - 19.4 °F 93% 30.09 in - Calm Calm - N/A   Unknown
1:55 AM 24.8 °F 19.1 °F 19.4 °F 80% 30.09 in - SSW 4.6 mph - N/A   Overcast
2:15 AM 26.6 °F 20.0 °F 21.2 °F 80% 30.09 in 10.0 mi SSW 5.8 mph - N/A   Overcast
2:35 AM 26.6 °F 18.2 °F 21.2 °F 80% 30.09 in 9.0 mi SSE 8.1 mph - N/A   Overcast
2:55 AM 26.6 °F 15.7 °F 23.0 °F 86% 30.08 in 7.0 mi South 12.7 mph - N/A   Overcast
3:15 AM 26.6 °F 15.7 °F 24.8 °F 93% 30.07 in 8.0 mi South 12.7 mph - N/A   Overcast
3:35 AM 26.6 °F 17.5 °F 24.8 °F 93% 30.07 in 10.0 mi South 9.2 mph - N/A   Overcast
3:55 AM 26.6 °F 18.2 °F 24.8 °F 93% 30.06 in 10.0 mi SSW 8.1 mph - N/A   Overcast
4:15 AM 28.4 °F 18.0 °F 23.0 °F 80% 30.06 in 10.0 mi South 12.7 mph - N/A   Overcast
4:35 AM 28.4 °F 17.5 °F 23.0 °F 80% 30.06 in 10.0 mi SSW 13.8 mph 19.6 mph N/A   Overcast
4:55 AM 28.4 °F 17.5 °F 23.0 °F 80% 30.05 in 10.0 mi SSW 13.8 mph - N/A   Overcast
5:15 AM 28.4 °F 17.5 °F 23.0 °F 80% 30.05 in 10.0 mi South 13.8 mph 19.6 mph N/A   Overcast
5:35 AM 28.4 °F 17.0 °F 23.0 °F 80% 30.03 in 10.0 mi South 15.0 mph 18.4 mph N/A   Overcast
5:55 AM 28.4 °F 19.1 °F 24.8 °F 86% 30.03 in 10.0 mi SSW 10.4 mph - N/A   Overcast
6:15 AM 28.4 °F 18.5 °F 24.8 °F 86% 30.03 in 10.0 mi South 11.5 mph - N/A   Overcast
6:35 AM 28.4 °F 18.5 °F 24.8 °F 86% 30.02 in 10.0 mi South 11.5 mph - N/A   Overcast
6:51 AM 28.4 °F 20.4 °F 24.8 °F 86% 30.02 in 10.0 mi South 8.1 mph - N/A   Overcast
6:55 AM 28.4 °F 19.7 °F 24.8 °F 86% 30.02 in 10.0 mi SSW 9.2 mph - N/A   Overcast
7:51 AM 28.4 °F 21.2 °F 24.8 °F 86% 30.01 in 3.0 mi SSW 6.9 mph - N/A Snow Light Snow
8:52 AM 30.2 °F 17.8 °F 26.6 °F 86% 30.01 in 6.0 mi South 19.6 mph - N/A   Overcast
9:59 AM 30.2 °F 19.8 °F 26.6 °F 86% 30.01 in 6.0 mi South 13.8 mph 26.5 mph N/A Snow Light Snow Showers
10:56 AM 30.2 °F 17.4 °F 26.6 °F 86% 29.99 in 6.0 mi South 20.7 mph 33.4 mph N/A Snow Light Snow Showers
11:52 AM 33.8 °F 22.5 °F 24.8 °F 70% 29.97 in 6.0 mi SSW 19.6 mph 27.6 mph N/A Snow Light Snow Showers
12:51 PM 32.0 °F 22.1 °F 26.6 °F 80% 29.94 in 6.0 mi South 13.8 mph 27.6 mph N/A Snow Light Snow Showers
1:58 PM 33.8 °F 21.9 °F 26.6 °F 75% 29.93 in 5.0 mi SSW 21.9 mph 28.8 mph N/A Snow Light Snow
2:51 PM 32.0 °F 21.2 °F 26.6 °F 80% 29.96 in 7.0 mi South 16.1 mph 27.6 mph N/A Snow Snow Showers
3:27 PM 32.0 °F 20.1 °F 24.8 °F 75% 29.97 in 2.5 mi SSW 19.6 mph 27.6 mph N/A Snow Light Snow
3:51 PM 30.2 °F 18.5 °F 26.6 °F 86% 29.99 in 0.8 mi SSW 17.3 mph 23.0 mph N/A Snow Light Snow
4:11 PM 30.2 °F 19.3 °F 26.6 °F 86% 29.99 in 1.5 mi SSW 15.0 mph 20.7 mph N/A Snow Light Snow
4:21 PM 32.0 °F 19.8 °F 26.6 °F 80% 29.98 in 4.0 mi SSW 20.7 mph 28.8 mph N/A Snow Light Snow
4:54 PM 30.2 °F 17.8 °F 26.6 °F 86% 29.99 in 4.0 mi SSW 19.6 mph 24.2 mph N/A Snow Light Snow
5:59 PM 32.0 °F 22.5 °F 24.8 °F 75% 30.01 in 4.0 mi SW 12.7 mph 19.6 mph N/A Snow Light Snow
6:58 PM 32.0 °F 25.6 °F 24.8 °F 75% 30.06 in 10.0 mi West 6.9 mph - N/A   Overcast
7:59 PM 30.2 °F 22.6 °F 23.0 °F 75% 30.08 in 10.0 mi South 8.1 mph - N/A   Mostly Cloudy
8:55 PM 30.2 °F 20.2 °F 24.8 °F 80% 30.09 in 10.0 mi South 12.7 mph - N/A   Overcast
9:15 PM 30.2 °F 23.4 °F 24.8 °F 80% 30.09 in 10.0 mi West 6.9 mph - N/A   Overcast
9:35 PM 30.2 °F 20.8 °F 24.8 °F 80% 30.10 in 10.0 mi South 11.5 mph - N/A   Overcast
9:55 PM 30.2 °F 23.4 °F 24.8 °F 80% 30.10 in 10.0 mi SW 6.9 mph - N/A   Overcast
10:15 PM 30.2 °F 24.3 °F 24.8 °F 80% 30.11 in 10.0 mi SW 5.8 mph - N/A   Overcast
10:35 PM 28.4 °F 22.2 °F 24.8 °F 86% 30.11 in 10.0 mi West 5.8 mph - N/A   Overcast
10:55 PM 28.4 °F 19.7 °F 24.8 °F 86% 30.12 in - South 9.2 mph - N/A   Overcast
11:15 PM 28.4 °F 18.5 °F 24.8 °F 86% 30.11 in 10.0 mi South 11.5 mph - N/A   Overcast
11:35 PM 28.4 °F 18.5 °F 24.8 °F 86% 30.12 in 10.0 mi South 11.5 mph - N/A   Mostly Cloudy
11:55 PM 28.4 °F 19.1 °F 24.8 °F 86% 30.12 in 10.0 mi SSW 10.4 mph - N/A   Scattered Clouds